Location: Newark
(49.8348°N, 24.0280°E)
Time: 14:38:57
(UTC+00:00)

S-56A Canister/Altair - Pass Details

Date: 01 February 2020
Orbit: 633 x 2500 km, 38.9° (Epoch: 28 February)

Event Time Altitude Azimuth Distance (km) Brightness Sun altitude
Rises 16:52:36 0° 236° (SW) 5,003 12.9 -15.4°
Reaches altitude 10° 16:56:47 10° 227° (SW) 3,680 11.8 -16.1°
Maximum altitude 17:04:12 30° 172° (S) 1,932 9.5 -17.3°
Enters shadow 17:07:52 18° 125° (SE) 2,203 9.4 -17.8°
Drops below altitude 10° 17:09:34 10° 112° (ESE) 2,611 - -18.1°
Sets 17:12:01 0° 101° (E) 3,366 - -18.5°
